Location: ???? ???
(30.5005°N, 60.5936°E)
Time: 13:16:55
(UTC+00:00)

PAYLOAD A - Pass Details

Date: 07 June 2020
Orbit: 692 x 832 km, 98.3° (Epoch: 06 July)

Event Time Altitude Azimuth Distance (km) Brightness Sun altitude
Rises 00:21:19 0° 2° (N) 3,092 7.7 -7.1°
Reaches altitude 10° 00:23:38 10° 356° (N) 2,184 6.7 -6.7°
Maximum altitude 00:28:06 41° 287° (WNW) 1,045 4.4 -5.9°
Drops below altitude 10° 00:32:41 10° 217° (SW) 2,243 5.8 -5.0°
Enters shadow 00:34:45 - 211° (SSW) 3,042 6.6 -4.6°
